Location: Curupao
(10.4996°N, 66.6442°W)
Time: 21:19:59
(UTC+00:00)

Cosmos 2218 Rocket - Pass Details

Date: 23 May 2024
Orbit: 954 x 1007 km, 82.9° (Epoch: 25 June)

Event Time Altitude Azimuth Distance (km) Brightness Sun altitude
Exits shadow 08:07:26 23° 168° (SSE) 2,004 5.4 -26.7°
Maximum altitude 08:11:35 65° 92° (E) 1,096 4.4 -25.8°
Drops below altitude 10° 08:17:52 10° 12° (NNE) 2,766 6.9 -24.5°
Sets 08:20:24 0° 9° (N) 3,710 7.6 -23.9°
